Anderson, SC

4:03 AM EDT on October 17, 2017 (GMT -0400)
Anderson Regional

Weather History for KAND - November, 2012

Change the Weather History Date:

Saturday, November 24, 2012

  Actual Average Record
Temperature  
Mean Temperature 45 °F -  
Max Temperature 55 °F 60 °F 76 °F (1973)
Min Temperature 32 °F 40 °F 18 °F (1970)
Degree Days  
Heating Degree Days 20    
Moisture  
Dew Point 23 °F    
Average Humidity 45    
Maximum Humidity 79    
Minimum Humidity 21    
Precipitation  
Precipitation 0.00 in - - ()
Sea Level Pressure  
Sea Level Pressure 30.05 in    
Wind  
Wind Speed 6 mph (West)    
Max Wind Speed 12 mph    
Max Gust Speed -    
Visibility 10 miles    
Events      
Averages and records for this station are not official NWS values.
T = Trace of Precipitation, MM = Missing Value Source: NWS Daily Summary

Daily Weather History Graph

Daily Weather History Graph

Search for Another Location

Airport or City:

Trip Planner

Search our weather history database for the weather conditions in past years. The results will help you decide how hot, cold, wet, or windy it might be!

Date:

Astronomy

Nov. 24, 2012 Rise Set
Actual Time 7:13 AM EST 5:21 PM EST
Civil Twilight 6:46 AM EST 5:49 PM EST
Nautical Twilight 6:15 AM EST 6:19 PM EST
Astronomical Twilight 5:45 AM EST 6:50 PM EST
Moon 2:59 PM EST (11/24) 3:36 AM EST (11/24)
Length of Visible Light 11h 02m
Length of Day
10h 08m
Waxing Gibbous, 87% of the Moon is Illuminated
Nov 24
Waxing Gibbous
Nov 28
Full
Dec 6
Last Quarter
Dec 13
New
Dec 20
First Quarter

Hourly Weather History & Observations

Time (EST) Temp. Windchill Dew Point Humidity Pressure Visibility Wind Dir Wind Speed Gust Speed Precip Events Conditions
12:56 AM 48.0 °F - 32.0 °F 54% 30.00 in 10.0 mi West 5.8 mph - N/A   Clear
1:56 AM 48.0 °F - 30.0 °F 50% 30.00 in 10.0 mi WNW 10.4 mph - N/A   Clear
3:56 AM 44.1 °F 41.5 °F 28.9 °F 55% 30.00 in 10.0 mi West 4.6 mph - N/A   Clear
4:56 AM 41.0 °F - 28.9 °F 62% 30.01 in 10.0 mi Calm Calm - N/A   Clear
5:56 AM 41.0 °F 39.0 °F 30.0 °F 65% 30.03 in 10.0 mi West 3.5 mph - N/A   Clear
6:56 AM 39.0 °F 36.8 °F 30.0 °F 70% 30.04 in 10.0 mi West 3.5 mph - N/A   Clear
7:56 AM 37.0 °F 34.5 °F 30.9 °F 79% 30.06 in 10.0 mi WNW 3.5 mph - N/A   Clear
8:56 AM 44.1 °F 40.8 °F 30.0 °F 58% 30.07 in 10.0 mi WNW 5.8 mph - N/A   Clear
9:56 AM 48.0 °F - 27.0 °F 44% 30.08 in 10.0 mi NW 9.2 mph - N/A   Clear
10:56 AM 52.0 °F - 25.0 °F 35% 30.07 in 10.0 mi NW 9.2 mph - N/A   Clear
11:56 AM 54.0 °F - 18.0 °F 24% 30.05 in 10.0 mi NW 11.5 mph - N/A   Clear
12:56 PM 54.0 °F - 16.0 °F 22% 30.03 in 10.0 mi WNW 9.2 mph - N/A   Clear
1:56 PM 55.0 °F - 21.0 °F 27% 30.02 in 10.0 mi WSW 11.5 mph - N/A   Clear
2:56 PM 55.0 °F - 17.1 °F 23% 30.01 in 10.0 mi WSW 8.1 mph - N/A   Clear
3:56 PM 55.0 °F - 15.1 °F 21% 30.02 in 10.0 mi WSW 6.9 mph - N/A   Clear
4:56 PM 51.1 °F - 17.1 °F 26% 30.03 in 10.0 mi SW 5.8 mph - N/A   Clear
5:56 PM 48.9 °F - 17.1 °F 28% 30.04 in 10.0 mi WSW 4.6 mph - N/A   Clear
6:56 PM 43.0 °F 40.3 °F 19.9 °F 40% 30.06 in 10.0 mi SSW 4.6 mph - N/A   Clear
7:56 PM 42.1 °F 39.2 °F 21.0 °F 43% 30.08 in 10.0 mi WNW 4.6 mph - N/A   Clear
8:56 PM 39.9 °F 36.7 °F 21.0 °F 47% 30.09 in 10.0 mi NE 4.6 mph - N/A   Clear
9:56 PM 41.0 °F 38.0 °F 17.1 °F 38% 30.10 in 10.0 mi NE 4.6 mph - N/A   Clear
10:56 PM 35.1 °F - 19.0 °F 52% 30.12 in 10.0 mi Calm Calm - N/A   Clear
11:56 PM 32.0 °F - 21.9 °F 66% 30.12 in 10.0 mi Calm Calm - N/A   Clear